Greenville, MS

7:03 AM CDT on April 26, 2017 (GMT -0500)
Mid Delta Regional

Weather History for KGLH - October, 2013

Change the Weather History Date:

Thursday, October 24, 2013

  Actual Average Record
Temperature  
Mean Temperature 59 °F 62 °F  
Max Temperature 73 °F 74 °F 91 °F (1927)
Min Temperature 45 °F 50 °F 31 °F (1981)
Degree Days  
Heating Degree Days 6 5  
Month to date heating degree days 57 65  
Since 1 July heating degree days 57 71  
Cooling Degree Days 0 2  
Month to date cooling degree days 105 81  
Year to date cooling degree days 2224 2161  
Growing Degree Days 9 (Base 50)    
Moisture  
Dew Point 45 °F    
Average Humidity 69    
Maximum Humidity 93    
Minimum Humidity 44    
Precipitation  
Precipitation 0.00 in 0.14 in 2.77 in (2010)
Month to date precipitation 5.71 3.56  
Year to date precipitation 42.42 41.20  
Sea Level Pressure  
Sea Level Pressure 30.21 in    
Wind  
Wind Speed 7 mph (NNE)    
Max Wind Speed 15 mph    
Max Gust Speed 20 mph    
Visibility 10 miles    
Events      
T = Trace of Precipitation, MM = Missing Value Source: NWS Daily Summary

Daily Weather History Graph

Daily Weather History Graph

Search for Another Location

Airport or City:

Trip Planner

Search our weather history database for the weather conditions in past years. The results will help you decide how hot, cold, wet, or windy it might be!

Date:

Astronomy

Oct. 24, 2013 Rise Set
Actual Time 7:16 AM CDT 6:19 PM CDT
Civil Twilight 6:50 AM CDT 6:44 PM CDT
Nautical Twilight 6:21 AM CDT 7:14 PM CDT
Astronomical Twilight 5:52 AM CDT 7:42 PM CDT
Moon 10:50 PM CDT (10/24) 12:10 PM CDT (10/24)
Length of Visible Light 11h 54m
Length of Day
11h 03m
Waning Gibbous, 71% of the Moon is Illuminated
Oct 24
Waning Gibbous
Oct 26
Last Quarter
Nov 3
New
Nov 9
First Quarter
Nov 17
Full

Hourly Weather History & Observations

Time (CDT) Temp. Dew Point Humidity Pressure Visibility Wind Dir Wind Speed Gust Speed Precip Events Conditions
12:53 AM 46.9 °F 44.1 °F 90% 30.14 in 10.0 mi NE 4.6 mph - N/A   Clear
1:53 AM 50.0 °F 42.1 °F 74% 30.13 in 10.0 mi ESE 3.5 mph - N/A   Clear
2:53 AM 48.0 °F 42.1 °F 80% 30.13 in 10.0 mi ESE 3.5 mph - N/A   Clear
3:53 AM 48.9 °F 42.1 °F 77% 30.12 in 10.0 mi Calm Calm - N/A   Clear
4:53 AM 48.9 °F 42.1 °F 77% 30.13 in 10.0 mi ESE 3.5 mph - N/A   Clear
5:53 AM 48.0 °F 42.1 °F 80% 30.14 in 10.0 mi SE 3.5 mph - N/A   Clear
6:53 AM 46.9 °F 42.1 °F 83% 30.16 in 10.0 mi Calm Calm - N/A   Clear
7:53 AM 48.0 °F 44.1 °F 86% 30.18 in 10.0 mi South 4.6 mph - N/A   Clear
8:53 AM 54.0 °F 46.9 °F 77% 30.18 in 10.0 mi South 8.1 mph - N/A   Clear
9:53 AM 61.0 °F 46.9 °F 60% 30.19 in 10.0 mi SW 6.9 mph - N/A   Clear
10:53 AM 66.0 °F 50.0 °F 56% 30.21 in 10.0 mi West 5.8 mph - N/A   Clear
11:53 AM 69.1 °F 50.0 °F 51% 30.21 in 10.0 mi NW 8.1 mph - N/A   Clear
12:53 PM 71.1 °F 48.9 °F 45% 30.21 in 10.0 mi North 10.4 mph - N/A   Clear
1:53 PM 72.0 °F 50.0 °F 46% 30.19 in 10.0 mi North 8.1 mph - N/A   Clear
2:53 PM 72.0 °F 48.9 °F 44% 30.19 in 10.0 mi NNE 8.1 mph - N/A   Clear
3:53 PM 72.0 °F 50.0 °F 46% 30.20 in 10.0 mi NNW 10.4 mph - N/A   Clear
4:53 PM 70.0 °F 46.9 °F 44% 30.22 in 10.0 mi North 12.7 mph - N/A   Clear
5:53 PM 64.9 °F 46.0 °F 50% 30.23 in 10.0 mi NNE 13.8 mph - N/A   Clear
6:53 PM 59.0 °F 45.0 °F 60% 30.27 in 10.0 mi North 11.5 mph - N/A   Clear
7:53 PM 57.0 °F 43.0 °F 59% 30.29 in 10.0 mi North 11.5 mph - N/A   Clear
8:53 PM 54.0 °F 42.1 °F 64% 30.32 in 10.0 mi North 9.2 mph - N/A   Clear
9:53 PM 53.1 °F 42.1 °F 66% 30.35 in 10.0 mi NNE 9.2 mph - N/A   Clear
10:53 PM 51.1 °F 41.0 °F 68% 30.36 in 10.0 mi NNE 10.4 mph - N/A   Clear
11:53 PM 48.9 °F 41.0 °F 74% 30.37 in 10.0 mi NNE 6.9 mph - N/A   Clear